ZSHLZ FAPE-FAPE

Flight info

Callsign ZSHLZ
Flight time 0h 17m
Altitude 1500
Route FAPE DCT SEAVIEW DCT GAMTOOS DCT SEAVIEW DCT FAPE
Aircraft UH1/L-VGD/C

Departure

Time 2026-04-26 13:39
Airport Chief Dawid Stuurman International Airport (FAPE)

Arrival

Time 2026-04-26 13:56
Airport Chief Dawid Stuurman International Airport (FAPE)
Time Latitude Longitude Altitude Speed Heading
2026-04-26 13:29 -33.98002 25.62155 191 ft 0 kts 349°
2026-04-26 13:35 -33.97988 25.62165 230 ft 6 kts 350°
2026-04-26 13:35 -33.98056 25.62136 266 ft 28 kts 197°
2026-04-26 13:35 -33.98151 25.62066 229 ft 18 kts 262°
2026-04-26 13:36 -33.98189 25.61762 299 ft 67 kts 245°
2026-04-26 13:36 -33.98444 25.61132 394 ft 94 kts 238°
2026-04-26 13:36 -33.98777 25.60399 442 ft 108 kts 236°
2026-04-26 13:36 -33.99129 25.59596 540 ft 107 kts 237°
2026-04-26 13:37 -33.99475 25.58820 665 ft 102 kts 232°
2026-04-26 13:37 -33.99820 25.58071 791 ft 103 kts 239°
2026-04-26 13:37 -34.00160 25.57266 802 ft 113 kts 238°
2026-04-26 13:37 -34.00529 25.56428 730 ft 117 kts 234°
2026-04-26 13:38 -34.00940 25.55603 699 ft 112 kts 236°
2026-04-26 13:38 -34.01267 25.54753 718 ft 109 kts 246°
2026-04-26 13:38 -34.01435 25.53872 758 ft 109 kts 253°
2026-04-26 13:38 -34.01559 25.52950 773 ft 113 kts 257°
2026-04-26 13:39 -34.01635 25.52016 861 ft 114 kts 255°
2026-04-26 13:39 -34.01780 25.51086 925 ft 116 kts 252°
2026-04-26 13:39 -34.01946 25.50125 924 ft 117 kts 251°
2026-04-26 13:39 -34.02152 25.49175 884 ft 110 kts 252°
2026-04-26 13:40 -34.02280 25.48230 819 ft 120 kts 254°
2026-04-26 13:40 -34.02383 25.47227 733 ft 119 kts 259°
2026-04-26 13:40 -34.02416 25.46229 565 ft 123 kts 267°
2026-04-26 13:40 -34.02298 25.45233 573 ft 118 kts 274°
2026-04-26 13:41 -34.02099 25.44266 533 ft 120 kts 276°
2026-04-26 13:41 -34.01889 25.43326 642 ft 113 kts 278°
2026-04-26 13:41 -34.01643 25.42436 728 ft 112 kts 280°
2026-04-26 13:41 -34.01449 25.41500 683 ft 119 kts 276°
2026-04-26 13:42 -34.01382 25.40482 541 ft 126 kts 260°
2026-04-26 13:42 -34.01422 25.39426 502 ft 123 kts 257°
2026-04-26 13:42 -34.01504 25.38396 392 ft 124 kts 259°
2026-04-26 13:42 -34.01582 25.37430 505 ft 112 kts 262°
2026-04-26 13:43 -34.01532 25.36492 672 ft 111 kts 270°
2026-04-26 13:43 -34.01395 25.35548 741 ft 117 kts 264°
2026-04-26 13:43 -34.01237 25.34927 910 ft 90 kts 356°
2026-04-26 13:43 -34.01029 25.35429 498 ft 88 kts 166°
2026-04-26 13:44 -34.01333 25.35018 276 ft 88 kts 309°
2026-04-26 13:44 -34.01257 25.35300 211 ft 62 kts 209°
2026-04-26 13:44 -34.01238 25.34958 74 ft 29 kts 169°
2026-04-26 13:44 -34.01280 25.35042 34 ft 0 kts 109°
2026-04-26 13:45 -34.01366 25.35162 147 ft 63 kts 127°
2026-04-26 13:45 -34.01229 25.35359 229 ft 55 kts 218°
2026-04-26 13:45 -34.01302 25.35117 115 ft 18 kts 290°
2026-04-26 13:45 -34.01252 25.35060 51 ft 9 kts 287°
2026-04-26 13:46 -34.01215 25.35009 42 ft 2 kts
2026-04-26 13:46 -34.01214 25.35007 37 ft 0 kts 10°
2026-04-26 13:47 -34.01195 25.35016 113 ft 17 kts 14°
2026-04-26 13:47 -34.00774 25.34918 257 ft 91 kts 328°
2026-04-26 13:47 -34.00265 25.34957 332 ft 95 kts 90°
2026-04-26 13:47 -34.00407 25.35664 451 ft 86 kts 143°
2026-04-26 13:48 -34.00910 25.36023 505 ft 89 kts 154°
2026-04-26 13:48 -34.01484 25.36527 480 ft 115 kts 136°
2026-04-26 13:48 -34.01618 25.37517 426 ft 131 kts 85°
2026-04-26 13:48 -34.01547 25.38629 287 ft 136 kts 84°
2026-04-26 13:49 -34.01505 25.39723 295 ft 130 kts 98°
2026-04-26 13:49 -34.01707 25.40771 274 ft 127 kts 104°
2026-04-26 13:49 -34.01870 25.41839 213 ft 131 kts 103°
2026-04-26 13:49 -34.02003 25.42892 255 ft 127 kts 104°
2026-04-26 13:50 -34.02141 25.43911 394 ft 121 kts 103°
2026-04-26 13:50 -34.02410 25.44842 515 ft 116 kts 119°
2026-04-26 13:50 -34.02652 25.45748 665 ft 117 kts 108°
2026-04-26 13:50 -34.02822 25.46789 534 ft 133 kts 98°
2026-04-26 13:51 -34.02918 25.47899 579 ft 128 kts 98°
2026-04-26 13:51 -34.03108 25.48948 563 ft 129 kts 107°
2026-04-26 13:51 -34.03366 25.50009 493 ft 133 kts 106°
2026-04-26 13:51 -34.03538 25.51088 571 ft 131 kts 104°
2026-04-26 13:52 -34.03679 25.52170 580 ft 137 kts 106°
2026-04-26 13:52 -34.03960 25.53260 488 ft 137 kts 112°
2026-04-26 13:52 -34.04132 25.54354 562 ft 134 kts 87°
2026-04-26 13:52 -34.03921 25.55446 563 ft 131 kts 73°
2026-04-26 13:53 -34.03616 25.56481 621 ft 133 kts 64°
2026-04-26 13:53 -34.03153 25.57437 678 ft 132 kts 58°
2026-04-26 13:53 -34.02735 25.58400 730 ft 128 kts 69°
2026-04-26 13:53 -34.02501 25.59420 775 ft 127 kts 70°
2026-04-26 13:54 -34.02155 25.60444 711 ft 134 kts 62°
2026-04-26 13:54 -34.01667 25.61427 537 ft 141 kts 53°
2026-04-26 13:54 -34.01059 25.62294 649 ft 132 kts 49°
2026-04-26 13:55 -33.99845 25.63195 507 ft 133 kts 358°
2026-04-26 13:55 -33.98465 25.62382 421 ft 82 kts 301°
2026-04-26 13:56 -33.98051 25.62178 224 ft 42 kts 48°
2026-04-26 13:56 -33.97995 25.62221 191 ft 0 kts 167°